Location: *
(45.0500°N, 12.0500°E)
Time: 12:47:59
(UTC+00:00)

Iridium 2 - Pass Details

Date: 09 April 2020
Orbit: 502 x 518 km, 85.5° (Epoch: 02 June)

Event Time Altitude Azimuth Distance (km) Brightness Sun altitude
Exits shadow 19:33:17 43° 127° (SE) 737 4.0 -17.7°
Maximum altitude 19:34:00 50° 90° (E) 667 3.8 -17.8°
Drops below altitude 10° 19:37:43 10° 15° (NNE) 1,757 6.6 -18.3°
Sets 19:39:54 0° 10° (N) 2,651 7.6 -18.6°
